* Astronomy

Members Login
Username 
 
Password 
    Remember Me  
Post Info TOPIC: Asteroid 2012 AO10


L

Posts: 131433
Date:
Asteroid 2012 AO10
Permalink  
 


Orbital elements:
2012 AO10                                                Earth MOID = 0.0464 AU
Epoch 2012 Mar. 14.0 TT = JDT 2456000.5                 MPC
M  70.38392              (2000.0)            P               Q
n   0.64486582     Peri.  112.29323     +0.55861301     -0.82484162
a   1.3268540      Node   303.45490     +0.71738060     +0.53319123
e   0.2918840      Incl.    5.99295     +0.41631308     +0.18799844
P   1.53           H   24.5           G   0.15           U   7

MPEC 2012 - A47



__________________
Page 1 of 1  sorted by
 
Quick Reply

Please log in to post quick replies.



Create your own FREE Forum
Report Abuse
Powered by ActiveBoard